Location: Gallinara
(44.0333°N, 8.2333°E)
Time: 01:19:05
(UTC+00:00)

Lacrosse 5 - Pass Details

Date: 25 September 2020
Orbit: 716 x 723 km, 57.0° (Epoch: 28 October)

Event Time Altitude Azimuth Distance (km) Brightness Sun altitude
Exits shadow 02:58:27 21° 329° (NNW) 1,597 3.6 -25.2°
Maximum altitude 02:59:26 22° 345° (NNW) 1,549 3.6 -25.0°
Drops below altitude 10° 03:03:22 10° 36° (NE) 2,209 5.2 -24.4°
Sets 03:06:16 0° 52° (NE) 3,132 6.5 -23.9°
